Date String (YYYY-MM-DD hh:mm:ss) UTC,Instrument flags,absolute air pressure of the measurement (hPa),sample flow rate (lpm),inlet stack bypass flow (lpm),air temperature of the measurement (°C),ambient temperature measured by the external sensor (°C),aerosol sample conditioner tube jacket temperature (°C),OPC LED temperature (°C),internal box temperature (°C),relative humidity of the measurement (%),span deviation,mass concentration of particles derived from Lorenz-Mie calculation of OPC scattering (μg/m³),mass concentration of particles derived from Lorenz-Mie calculation of OPC scattering (μg/m³),mass concentration of particles derived from Lorenz-Mie calculation of OPC scattering (μg/m³)
DateTimeUTC,F1_M11,P_M11,Q1_M11,Q2_M11,T1_M11,T2_M11,T3_M11,T4_M11,T5_M11,U1_M11,ZSPAN_M11,X0_M11,X2_M11,X1_M11
2024-06-17 07:00:00,SystemResetWarning,0821.5,4.99,000.00,029.7,029.0,000.0,038.1,031.5,032.6,0001.6,0026.52,0006.89,0005.49
2024-06-17 07:01:00,SystemResetWarning,0821.6,4.99,000.00,029.8,029.1,000.0,038.1,031.6,032.4,0001.6,0026.56,0006.86,0005.45
2024-06-17 07:02:00,SystemResetWarning,0821.5,5.00,000.00,029.8,029.2,000.0,038.1,031.7,032.4,0001.3,0026.78,0006.79,0005.43
2024-06-17 07:03:00,SystemResetWarning,0821.9,4.99,000.00,029.9,029.3,000.0,038.1,031.7,032.3,0000.9,0025.71,0006.75,0005.42
2024-06-17 07:04:00,SystemResetWarning,0822.0,5.00,000.00,029.9,029.4,000.0,038.1,031.8,032.2,0000.8,0025.44,0006.80,0005.40
2024-06-17 07:05:00,SystemResetWarning,0822.0,5.00,000.00,030.0,029.5,000.0,038.2,031.8,032.2,0001.1,0025.19,0006.80,0005.38
2024-06-17 07:06:00,SystemResetWarning,0822.0,5.01,000.00,030.0,029.6,000.0,038.2,031.9,032.1,0001.1,0024.76,0006.78,0005.35
2024-06-17 07:07:00,SystemResetWarning,0822.1,5.01,000.00,030.1,029.6,000.0,038.2,031.9,031.9,0001.0,0023.34,0006.81,0005.33
2024-06-17 07:08:00,SystemResetWarning,0822.0,5.00,000.00,030.1,029.7,000.0,038.3,032.0,031.9,0001.0,0021.92,0006.81,0005.30
2024-06-17 07:09:00,SystemResetWarning,0822.0,4.99,000.00,030.2,029.8,000.0,038.3,032.0,031.8,0001.3,0024.21,0006.76,0005.29
2024-06-17 07:10:00,SystemResetWarning,0822.0,4.99,000.00,030.2,029.8,000.0,038.3,032.1,031.7,0000.6,0026.25,0006.76,0005.26
2024-06-17 07:11:00,SystemResetWarning,0822.0,4.99,000.00,030.3,029.9,000.0,038.4,032.1,031.7,0000.6,0026.61,0006.76,0005.25
2024-06-17 07:12:00,SystemResetWarning,0821.9,5.00,000.00,030.3,029.9,000.0,038.4,032.1,031.6,0000.8,0027.38,0006.74,0005.25
2024-06-17 07:13:00,SystemResetWarning,0821.6,5.00,000.00,030.4,030.0,000.0,038.5,032.2,031.5,0000.6,0027.10,0006.72,0005.24
2024-06-17 07:14:00,SystemResetWarning,0821.4,4.99,000.00,030.3,028.7,000.0,038.5,031.5,031.6,0001.2,0028.29,0006.71,0005.22
2024-06-17 07:15:00,SystemResetWarning,0821.3,5.01,000.00,029.9,026.7,000.0,038.6,030.6,032.3,0001.1,0027.47,0006.65,0005.19
2024-06-17 07:16:00,SystemResetWarning,0821.3,5.01,000.00,029.6,026.5,000.0,038.5,030.4,032.8,0000.9,0026.89,0006.65,0005.19
2024-06-17 07:17:00,SystemResetWarning,0821.2,4.99,000.00,029.5,026.8,000.0,038.4,030.5,033.1,0000.7,0026.56,0006.63,0005.21
2024-06-17 07:18:00,SystemResetWarning,0821.2,5.00,000.00,029.5,027.3,000.0,038.3,030.8,033.1,0000.6,0027.41,0006.60,0005.22
2024-06-17 07:19:00,SystemResetWarning,0821.2,5.01,000.00,029.5,027.7,000.0,038.2,031.0,033.1,0000.7,0027.52,0006.53,0005.23
2024-06-17 07:20:00,SystemResetWarning,0821.2,5.00,000.00,029.6,028.0,000.0,038.2,031.1,033.0,0000.3,0025.23,0006.57,0005.23
2024-06-17 07:21:00,SystemResetWarning,0821.2,4.99,000.00,029.6,028.3,000.0,038.1,031.3,032.9,0000.4,0022.29,0006.61,0005.25
2024-06-17 07:22:00,SystemResetWarning,0821.2,5.00,000.00,029.7,028.6,000.0,038.1,031.4,032.8,0000.5,0022.86,0006.61,0005.26
2024-06-17 07:23:00,SystemResetWarning,0821.2,5.00,000.00,029.7,028.8,000.0,038.1,031.4,032.8,0000.5,0022.71,0006.66,0005.27
2024-06-17 07:24:00,SystemResetWarning,0821.2,5.00,000.00,029.8,028.9,000.0,038.1,031.5,032.7,0000.6,0022.19,0006.72,0005.27
2024-06-17 07:25:00,SystemResetWarning,0821.2,5.01,000.00,029.8,029.1,000.0,038.1,031.6,032.6,0001.0,0020.81,0006.76,0005.27
2024-06-17 07:26:00,SystemResetWarning,0821.1,5.00,000.00,029.9,029.2,000.0,038.1,031.7,032.5,0000.6,0019.75,0006.75,0005.29
2024-06-17 07:27:00,SystemResetWarning,0821.5,5.00,000.00,029.9,029.3,000.0,038.2,031.8,032.3,0000.9,0018.84,0006.74,0005.31
2024-06-17 07:28:00,SystemResetWarning,0821.1,5.00,000.00,030.0,029.4,000.0,038.2,031.8,032.1,0001.8,0019.09,0006.78,0005.32
2024-06-17 07:29:00,SystemResetWarning,0821.1,5.00,000.00,030.0,029.5,000.0,038.2,031.8,031.9,0002.0,0018.28,0006.83,0005.35
2024-06-17 07:30:00,SystemResetWarning,0821.1,5.00,000.00,030.1,029.6,000.0,038.2,031.9,031.6,0002.4,0018.06,0006.90,0005.39
2024-06-17 07:31:00,SystemResetWarning,0821.1,5.00,000.00,030.1,029.6,000.0,038.3,031.9,031.1,0003.5,0018.49,0006.92,0005.43
2024-06-17 07:32:00,SystemResetWarning,0821.1,5.00,000.00,030.2,029.7,000.0,038.3,032.0,030.9,0002.6,0018.45,0006.88,0005.45
2024-06-17 07:33:00,SystemResetWarning,0820.9,5.01,000.00,030.2,029.7,000.0,038.3,032.0,030.8,0000.0,0017.58,0006.87,0005.48
2024-06-17 07:34:00,SystemResetWarning,0821.1,4.99,000.00,030.2,029.8,000.0,038.4,032.1,030.7,0000.0,0017.28,0006.91,0005.51
2024-06-17 07:35:00,SystemResetWarning,0821.0,5.00,000.00,030.3,029.8,000.0,038.4,032.1,030.6,0000.0,0017.76,0006.94,0005.53
2024-06-17 07:36:00,SystemResetWarning,0821.2,5.00,000.00,030.3,029.9,000.0,038.4,032.1,030.4,0000.0,0018.39,0007.00,0005.56
2024-06-17 07:37:00,SystemResetWarning,0820.9,5.01,000.00,030.4,029.9,000.0,038.5,032.2,030.3,0000.0,0019.00,0007.09,0005.59
2024-06-17 07:38:00,SystemResetWarning,0820.8,5.01,000.00,030.4,029.9,000.0,038.5,032.2,030.2,0000.0,0019.13,0007.14,0005.60
2024-06-17 07:39:00,SystemResetWarning,0820.8,5.00,000.00,030.5,030.0,000.0,038.5,032.2,030.1,0000.0,0018.48,0007.13,0005.60
2024-06-17 07:40:00,SystemResetWarning,0820.8,4.98,000.00,030.4,029.0,000.0,038.6,031.7,030.1,0000.0,0018.16,0007.10,0005.58
2024-06-17 07:41:00,SystemResetWarning,0820.7,5.01,000.00,030.0,026.7,000.0,038.6,030.7,030.8,0000.0,0019.18,0007.06,0005.55
2024-06-17 07:42:00,SystemResetWarning,0820.6,5.02,000.00,029.7,026.3,000.0,038.6,030.3,031.1,0000.0,0018.78,0007.01,0005.53
2024-06-17 07:43:00,SystemResetWarning,0820.6,5.00,000.00,029.5,026.6,000.0,038.5,030.4,031.1,0000.0,0018.46,0007.05,0005.52
2024-06-17 07:44:00,SystemResetWarning,0820.6,5.01,000.00,029.5,027.1,000.0,038.4,030.7,031.1,0000.0,0019.45,0007.14,0005.52
2024-06-17 07:45:00,SystemResetWarning,0820.6,4.99,000.00,029.5,027.5,000.0,038.3,030.9,030.9,0000.0,0020.27,0007.11,0005.50
2024-06-17 07:46:00,SystemResetWarning,0820.7,5.00,000.00,029.5,027.8,000.0,038.2,031.1,030.9,0000.0,0020.68,0007.04,0005.49
2024-06-17 07:47:00,SystemResetWarning,0820.7,5.00,000.00,029.6,028.1,000.0,038.2,031.2,031.0,0000.0,0020.59,0006.99,0005.47
2024-06-17 07:48:00,SystemResetWarning,0820.7,5.00,000.00,029.6,028.4,000.0,038.1,031.3,030.9,0000.0,0020.92,0006.94,0005.44
2024-06-17 07:49:00,SystemResetWarning,0820.7,4.99,000.00,029.7,028.6,000.0,038.1,031.4,030.8,0000.0,0021.04,0006.92,0005.41
2024-06-17 07:50:00,SystemResetWarning,0820.7,5.00,000.00,029.7,028.8,000.0,038.1,031.5,030.4,0000.0,0022.54,0006.89,0005.39
2024-06-17 07:51:00,SystemResetWarning,0820.7,5.00,000.00,029.8,028.9,000.0,038.1,031.5,030.2,0000.0,0024.18,0006.91,0005.38
2024-06-17 07:52:00,SystemResetWarning,0820.7,5.01,000.00,029.8,029.1,000.0,038.1,031.6,030.1,0000.0,0024.19,0006.92,0005.37
2024-06-17 07:53:00,SystemResetWarning,0820.6,5.01,000.00,029.9,029.2,000.0,038.1,031.7,030.0,0000.0,0023.54,0006.93,0005.35
2024-06-17 07:54:00,SystemResetWarning,0820.6,4.99,000.00,029.9,029.3,000.0,038.1,031.7,030.0,0000.0,0023.94,0006.92,0005.34
2024-06-17 07:55:00,SystemResetWarning,0820.6,4.99,000.00,030.0,029.3,000.0,038.2,031.8,029.9,0000.0,0023.78,0006.85,0005.31
2024-06-17 07:56:00,SystemResetWarning,0820.6,4.99,000.00,030.0,029.4,000.0,038.2,031.8,030.0,0000.0,0022.68,0006.86,0005.29
2024-06-17 07:57:00,SystemResetWarning,0820.6,5.00,000.00,030.0,029.5,000.0,038.2,031.9,029.9,0000.0,0022.12,0006.89,0005.29
2024-06-17 07:58:00,SystemResetWarning,0820.6,5.00,000.00,030.1,029.6,000.0,038.3,031.9,029.8,0000.0,0022.58,0006.92,0005.30
2024-06-17 07:59:00,SystemResetWarning,0820.6,5.00,000.00,030.1,029.6,000.0,038.3,031.9,029.9,0000.0,0023.08,0006.90,0005.30
